Overview Statistics Trail Chart Weather Telemetry Raw packets
 

This is the latest recevied weather packets stored in our database for station/object N2ZVN. If no packets are shown the sender has not sent any weather packets the latest 10 day(s).

<< 99 100 101 102 103 104 105 >>
Time Temp. Humidity Pressure Rain* Wind** Luminosity Snow
1787963904 14.44° C 92% 1022 hPa 0 mm - 0 W/m² -
1787963599 15° C 91% 1021.8 hPa 0 mm - 0 W/m² -
1787963294 15° C 89% 1021.7 hPa 0 mm - 0 W/m² -
1787962994 15° C 86% 1021.5 hPa 0 mm - 0 W/m² -
1787962688 15° C 86% 1021.6 hPa 0 mm - 0 W/m² -
1787962382 15.56° C 85% 1021.9 hPa 0 mm - 0 W/m² -
1787962082 15.56° C 85% 1021.7 hPa 0 mm - 0 W/m² -
1787961781 16.11° C 85% 1021.9 hPa 0 mm - 1 W/m² -
1787961480 16.11° C 85% 1021.7 hPa 0 mm - 1 W/m² -
1787961179 16.11° C 84% 1021.9 hPa 0 mm - 2 W/m² -
1787960879 16.67° C 84% 1021.7 hPa 0 mm - 3 W/m² -
1787960574 16.67° C 82% 1021.8 hPa 0 mm - 5 W/m² -
1787960272 17.22° C 81% 1021.7 hPa 0 mm - 6 W/m² -
1787959972 17.22° C 78% 1021.5 hPa 0 mm - 7 W/m² -
1787959667 17.78° C 78% 1021.6 hPa 0 mm - 9 W/m² -
1787959372 17.78° C 75% 1021.6 hPa 0 mm - 10 W/m² -
1787959057 17.78° C 73% 1021.8 hPa 0 mm - 11 W/m² -
1787958752 18.33° C 72% 1021.6 hPa 0 mm - 12 W/m² -
1787958448 18.33° C 72% 1021.7 hPa 0 mm - 13 W/m² -
1787958144 18.89° C 66% 1021.5 hPa 0 mm - 14 W/m² -
1787957842 18.89° C 65% 1021.6 hPa 0 mm - 15 W/m² -
1787957537 18.89° C 63% 1021.7 hPa 0 mm - 15 W/m² -
1787957232 19.44° C 61% 1021.7 hPa 0 mm - 16 W/m² -
1787956927 19.44° C 62% 1021.8 hPa 0 mm - 18 W/m² -
1787956627 19.44° C 59% 1021.9 hPa 0 mm - 17 W/m² -

* Rain latest hour (hover to see other rain measurements)
** Current wind speed in m/s (hover to see current wind gust speed)